TimePDT,TemperatureF,Dew PointF,Humidity,Sea Level PressureIn,VisibilityMPH,Wind Direction,Wind SpeedMPH,Gust SpeedMPH,PrecipitationIn,Events,Conditions,WindDirDegrees,DateUTC
12:53 AM,66.9,32.0,27,29.86,10.0,NNE,10.4,-,N/A,,Overcast,30,2013-08-23 07:53:00
1:53 AM,68.0,30.9,25,29.85,10.0,NNE,6.9,-,N/A,,Overcast,30,2013-08-23 08:53:00
2:53 AM,66.0,34.0,30,29.86,10.0,NE,8.1,-,N/A,,Overcast,50,2013-08-23 09:53:00
3:53 AM,55.9,32.0,40,29.87,10.0,North,4.6,-,N/A,,Overcast,350,2013-08-23 10:53:00
4:53 AM,52.0,30.9,45,29.88,9.0,West,4.6,-,N/A,,Overcast,260,2013-08-23 11:53:00
5:53 AM,50.0,30.9,48,29.89,10.0,WSW,3.5,-,N/A,,Overcast,250,2013-08-23 12:53:00
6:53 AM,51.1,33.1,50,29.90,9.0,Calm,Calm,-,N/A,,Overcast,0,2013-08-23 13:53:00
7:53 AM,57.0,35.1,44,29.91,7.0,ESE,4.6,-,N/A,,Overcast,120,2013-08-23 14:53:00
8:53 AM,64.9,37.0,36,29.89,8.0,SE,3.5,-,N/A,,Overcast,140,2013-08-23 15:53:00
9:53 AM,71.1,42.1,35,29.87,10.0,Calm,Calm,-,N/A,,Overcast,0,2013-08-23 16:53:00
10:53 AM,77.0,39.9,26,29.87,8.0,Calm,Calm,-,N/A,,Overcast,0,2013-08-23 17:53:00
11:53 AM,81.0,37.0,21,29.85,4.0,Calm,Calm,-,N/A,,Haze,0,2013-08-23 18:53:00
12:16 PM,82.0,34.0,18,29.96,2.5,SW,5.8,-,N/A,,Haze,220,2013-08-23 19:16:00
12:25 PM,82.9,33.1,17,29.96,2.0,Calm,Calm,-,N/A,,Haze,0,2013-08-23 19:25:00
12:53 PM,82.9,33.1,17,29.83,2.5,Calm,Calm,-,N/A,,Haze,0,2013-08-23 19:53:00
1:17 PM,84.9,30.9,14,29.94,3.0,West,4.6,-,N/A,,Haze,270,2013-08-23 20:17:00
1:25 PM,84.9,30.0,14,29.94,3.0,South,9.2,-,N/A,,Haze,190,2013-08-23 20:25:00
1:53 PM,84.0,28.9,14,29.81,3.0,Variable,3.5,-,N/A,,Haze,0,2013-08-23 20:53:00
2:09 PM,84.9,30.0,14,29.92,2.5,South,4.6,-,N/A,,Haze,180,2013-08-23 21:09:00
2:53 PM,84.9,28.9,13,29.78,2.0,Calm,Calm,-,N/A,,Haze,0,2013-08-23 21:53:00
3:53 PM,87.1,27.0,11,29.77,2.5,Variable,6.9,-,N/A,,Haze,0,2013-08-23 22:53:00
4:53 PM,87.1,28.9,12,29.76,2.5,Variable,3.5,-,N/A,,Haze,0,2013-08-23 23:53:00
5:17 PM,87.1,25.0,10,29.85,3.0,Variable,6.9,-,N/A,,Haze,0,2013-08-24 00:17:00
5:53 PM,86.0,24.1,10,29.75,3.0,South,4.6,-,N/A,,Haze,190,2013-08-24 00:53:00
6:53 PM,82.9,25.0,12,29.74,3.0,South,4.6,-,N/A,,Haze,170,2013-08-24 01:53:00
7:53 PM,80.1,26.1,14,29.75,4.0,WNW,4.6,-,N/A,,Haze,290,2013-08-24 02:53:00
8:53 PM,73.9,27.0,18,29.76,4.0,NNW,8.1,-,N/A,,Haze,330,2013-08-24 03:53:00
9:53 PM,64.9,28.9,26,29.78,4.0,ESE,5.8,-,N/A,,Haze,110,2013-08-24 04:53:00
10:53 PM,66.9,30.0,25,29.77,4.0,NE,4.6,-,N/A,,Haze,40,2013-08-24 05:53:00
11:53 PM,61.0,28.0,29,29.78,4.0,NNW,5.8,-,N/A,,Haze,330,2013-08-24 06:53:00